Starlink 33730

operational
NORAD ID: 63439 Int'l Des: 2025-069 Owner: SPXS Country: US Constellation: starlink
LEOCIRCULAR

Starlink 33730について

説明を読み込み中...

リアルタイム位置

3D地球を読み込み中...

次回通過

高度履歴

Altitude vs Time

uPlot chart will show altitude changes over time

軌道要素

1 63439U 25069G 26035.93557105 .00031306 00000-0 10641-2 0 9995
2 63439 53.1592 294.3524 0001523 130.5048 229.6086 15.30217834 48394
Epoch: Feb 4, 2026 • Age: 20 hours

現在のステータス

高度 485.2 km
速度 7.62 km/s
衛星直下点 -30.18°S, 151.1°W
打ち上げ日 Apr 4, 2025
運用期間 0.8 years
タイプ internet

技術仕様

分類 Payload
質量 575.00 kg
乾燥質量 530.00 kg
総質量 575.00 kg
長さ 0.30 m
直径 4.10 m
スパン 29.00 m
形状 Box + pan
製造者 SPXS
バスタイプ Starlink V2MO
フェーズステータス In Orbit
所有者/国 SPXS/US

大規模コンステレーション

Loading constellations...